Terug naar catalogus

STARLINK-37159

ActiefCommunicatieVLEO
NORAD 68284·PAYLOAD·🇺🇸 United States

Gelanceerd Mar 19, 2026 vanaf Vandenberg Space Force Base

Loading…

Volgende Passages (komende 24 uur)

TLE

VersSource: CelesTrak SupGP

Epoch: Sep 14, 2026, 15:20 UTC

1 68284C 26055Y   26257.63937500  .00066354  00000+0  19608-2 0  2577
2 68284  53.1582 159.3846 0001187  82.7519 209.0146 15.34351713    15

Volg STARLINK-37159 in realtime met AllMySat

Download on the App Store